Location: Drocourt
(49.0571°N, 1.7669°E)
Time: 20:01:04
(UTC+00:00)

S-56A Canister/Altair - Pass Details

Date: 19 April 2024
Orbit: 638 x 2488 km, 38.9° (Epoch: 20 May)

Event Time Altitude Azimuth Distance (km) Brightness Sun altitude
Rises 23:34:32 0° 269° (W) 4,657 11.6 -29.2°
Reaches altitude 10° 23:39:06 10° 249° (WSW) 4,032 11.0 -29.3°
Enters shadow 23:41:01 13° 238° (WSW) 3,916 10.8 -29.3°
Maximum altitude 23:44:45 16° 217° (SW) 3,966 - -29.3°
Drops below altitude 10° 23:51:18 10° 187° (S) 4,774 - -29.3°
Sets 23:57:43 0° 169° (SSE) 6,018 - -29.3°
